Location: Newark
(40.9833°N, 0.0333°W)
Time: 08:14:28
(UTC+00:00)

Transit 4A - Pass Details

Date: 02 November 2020
Orbit: 862 x 982 km, 66.8° (Epoch: 28 November)

Event Time Altitude Azimuth Distance (km) Brightness Sun altitude
Rises 16:02:39 0° 267° (W) 3,628 12.3 8.1°
Reaches altitude 10° 16:06:26 10° 290° (WNW) 2,706 11.1 7.5°
Maximum altitude 16:10:00 15° 324° (NW) 2,356 10.2 6.9°
Drops below altitude 10° 16:13:36 10° 359° (N) 2,737 10.1 6.3°
Sets 16:17:29 0° 22° (NNE) 3,694 10.6 5.6°
